GW3926 Weather Reports


time (UTC)temp
C
wind
direction
speed
KPH
gust
KPH
rain 1hr
cm
rain 24hr
cm
rain mn
cm
humidity
%
barometer
mb
20260504235011 26 205 3.2 11.3 0.00 0.00 0.00 48 1002.0
20260504234524 26 240 1.6 11.3 0.00 0.00 0.00 49 1002.0
20260504234013 26 242 3.2 11.3 0.00 0.00 0.00 48 1001.9
20260504233507 26 197 1.6 6.4 0.00 0.00 0.00 49 1001.9
20260504233028 26 217 1.6 6.4 0.00 0.00 0.00 48 1002.0
20260504232511 26 164 1.6 8.0 0.00 0.00 0.00 48 1002.0
20260504232011 26 187 1.6 14.5 0.00 0.00 0.00 47 1002.1
20260504231516 26 227 4.8 14.5 0.00 0.00 0.00 45 1002.1
20260504231007 26 238 3.2 16.1 0.00 0.00 0.00 46 1002.2
20260504230506 26 222 4.8 16.1 0.00 0.00 0.00 45 1002.2
20260504230019 26 241 1.6 9.7 0.00 0.00 0.00 47 1002.2
20260504225508 26 277 4.8 8.0 0.00 0.00 0.00 45 1002.3
20260504225010 26 227 3.2 8.0 0.00 0.00 0.00 46 1002.4
20260504224533 26 242 4.8 12.9 0.00 0.00 0.00 45 1002.4
20260504224008 26 243 4.8 14.5 0.00 0.00 0.00 46 1002.3
20260504223510 26 251 8.0 16.1 0.00 0.00 0.00 44 1002.4
20260504223026 26 254 3.2 16.1 0.00 0.00 0.00 45 1002.4
20260504222508 26 215 6.4 9.7 0.00 0.00 0.00 45 1002.4
20260504222010 26 203 3.2 9.7 0.00 0.00 0.00 47 1002.5
20260504221526 26 224 1.6 9.7 0.00 0.00 0.00 48 1002.6
20260504221012 26 185 1.6 9.7 0.00 0.00 0.00 49 1002.6
20260504220510 26 158 1.6 8.0 0.00 0.00 0.00 48 1002.5
20260504220018 26 200 1.6 12.9 0.00 0.00 0.00 48 1002.6
20260504215505 27 225 4.8 12.9 0.00 0.00 0.00 46 1002.6
20260504215008 27 182 3.2 16.1 0.00 0.00 0.00 50 1002.5
20260504214527 27 249 6.4 20.9 0.00 0.00 0.00 47 1002.5
20260504214010 27 150 4.8 20.9 0.00 0.00 0.00 46 1002.6
20260504213510 27 127 3.2 11.3 0.00 0.00 0.00 47 1002.6
20260504213024 27 86 4.8 16.1 0.00 0.00 0.00 46 1002.7
20260504212508 27 273 6.4 17.7 0.00 0.00 0.00 48 1002.7
20260504212013 27 227 3.2 17.7 0.00 0.00 0.00 49 1002.7
20260504211528 27 261 6.4 17.7 0.00 0.00 0.00 49 1002.7
20260504211009 27 222 6.4 12.9 0.00 0.00 0.00 48 1002.9
20260504210509 27 197 3.2 9.7 0.00 0.00 0.00 50 1002.9
20260504210035 27 211 1.6 12.9 0.00 0.00 0.00 54 1002.7
20260504205511 26 228 6.4 12.9 0.00 0.00 0.00 52 1002.8
20260504205010 26 128 3.2 11.3 0.00 0.00 0.00 53 1002.7
20260504204529 26 186 1.6 11.3 0.00 0.00 0.00 55 1002.8
20260504204008 26 229 3.2 22.5 0.00 0.00 0.00 56 1002.9
20260504203510 26 198 8.0 22.5 0.00 0.00 0.00 52 1003.1
20260504203027 26 217 3.2 16.1 0.00 0.00 0.00 55 1003.1
20260504202509 25 72 6.4 14.5 0.00 0.00 0.00 57 1003.2
20260504202008 25 234 3.2 11.3 0.00 0.00 0.00 57 1003.3
20260504201525 25 175 3.2 12.9 0.00 0.00 0.00 59 1003.3
20260504201008 24 242 3.2 12.9 0.00 0.00 0.00 56 1003.4
20260504200508 25 227 3.2 11.3 0.00 0.00 0.00 58 1003.5
20260504200026 25 302 4.8 17.7 0.00 0.00 0.00 59 1003.7
20260504195505 24 129 3.2 17.7 0.00 0.00 0.00 60 1003.8
20260504195006 23 138 1.6 9.7 0.00 0.00 0.00 65 1003.9
20260504194516 23 239 3.2 11.3 0.00 0.00 0.00 62 1004.0
20260504194007 22 132 1.6 11.3 0.00 0.00 0.00 69 1004.0
20260504193508 22 193 3.2 11.3 0.00 0.00 0.00 64 1004.0
20260504193024 22 115 1.6 4.8 0.00 0.00 0.00 65 1004.0
20260504192510 21 139 1.6 9.7 0.00 0.00 0.00 67 1004.1
20260504192009 22 116 1.6 11.3 0.00 0.00 0.00 65 1004.3
20260504191503 22 215 3.2 11.3 0.00 0.00 0.00 63 1004.5
20260504191006 22 250 3.2 11.3 0.00 0.00 0.00 68 1004.4
20260504190506 21 170 3.2 11.3 0.00 0.00 0.00 66 1004.3
20260504190009 20 214 3.2 17.7 0.00 0.00 0.00 70 1004.0
20260504185507 18 229 4.8 17.7 0.00 0.00 0.00 71 1003.8
20260504185005 18 195 3.2 14.5 0.00 0.00 0.00 72 1003.7
20260504184516 18 173 8.0 16.1 0.00 0.00 0.00 71 1003.5
20260504184007 18 114 4.8 16.1 0.00 0.00 0.00 71 1004.0
20260504183512 18 139 4.8 16.1 0.00 0.00 0.00 71 1004.6
20260504183020 18 205 1.6 14.5 0.00 0.00 0.00 70 1004.7
20260504182508 18 209 1.6 9.7 0.00 0.00 0.00 66 1004.8
20260504182009 19 180 3.2 8.0 0.00 0.00 0.00 66 1005.2
20260504181521 19 194 1.6 6.4 0.00 0.00 0.00 65 1005.4
20260504181011 19 223 3.2 16.1 0.00 0.00 0.00 65 1005.3
20260504180512 19 148 4.8 16.1 0.00 0.00 0.00 65 1005.1
20260504180008 20 158 3.2 11.3 0.00 0.00 0.00 66 1005.0
20260504175506 20 215 3.2 11.3 0.00 0.00 0.00 64 1005.0
20260504175004 20 140 1.6 9.7 0.00 0.00 0.00 65 1005.1
20260504174511 20 215 3.2 8.0 0.00 0.00 0.00 65 1005.2
20260504174004 20 302 3.2 9.7 0.00 0.00 0.00 63 1005.2
20260504173506 20 223 1.6 12.9 0.00 0.00 0.00 63 1005.2
20260504173019 20 128 3.2 12.9 0.00 0.00 0.00 62 1005.3
20260504172508 20 235 1.6 9.7 0.00 0.00 0.00 63 1005.6
20260504172008 20 96 1.6 9.7 0.00 0.00 0.00 67 1005.7
20260504171524 20 153 1.6 8.0 0.00 0.00 0.00 64 1005.7
20260504171013 19 224 3.2 8.0 0.00 0.00 0.00 64 1005.8
20260504170510 19 201 1.6 6.4 0.00 0.00 0.00 65 1005.9
20260504151009 17 133 1.6 9.7 0.00 0.00 0.00 66 1006.5
20260504150511 17 199 0.0 8.0 0.00 0.00 0.00 65 1007.1
20260504141007 18 223 0.0 8.0 0.00 0.00 0.00 62 1007.2
20260504140507 18 228 3.2 8.0 0.00 0.00 0.00 61 1007.2
20260504130509 17 230 3.2 8.0 0.00 0.00 0.00 65 1007.7
20260504110508 14 155 0.0 0.0 0.00 0.00 0.00 74 1008.1
20260504100505 15 227 0.0 0.0 0.00 0.00 0.00 69 1008.2
20260504081521 13 42 0.0 0.0 0.00 0.00 0.00 77 1008.3
20260504081011 14 42 0.0 0.0 0.00 0.00 0.00 75 1008.4
20260504080511 15 42 0.0 0.0 0.00 0.00 0.00 75 1008.5
20260504050511 18 227 0.0 3.2 0.00 0.00 0.00 59 1008.5
20260504050004 18 236 0.0 3.2 0.00 0.00 0.00 60 1008.4
20260504045503 18 231 0.0 3.2 0.00 0.00 0.00 59 1008.3
20260504045003 18 220 0.0 3.2 0.00 0.00 0.00 59 1008.3
20260504044512 18 225 0.0 3.2 0.00 0.00 0.00 59 1008.3
20260504044005 18 266 0.0 3.2 0.00 0.00 0.00 58 1008.4
20260504043503 18 278 0.0 6.4 0.00 0.00 0.00 57 1008.4
20260504043012 19 275 0.0 6.4 0.00 0.00 0.00 57 1008.5
20260504042504 19 257 1.6 6.4 0.00 0.00 0.00 57 1008.6
20260504042008 19 217 0.0 4.8 0.00 0.00 0.00 57 1008.7
20260504041533 19 205 0.0 4.8 0.00 0.00 0.00 56 1008.9
20260504041006 19 275 0.0 4.8 0.00 0.00 0.00 55 1009.2
20260504040509 19 296 1.6 9.7 0.00 0.00 0.00 55 1009.1
20260504040021 20 202 1.6 9.7 0.00 0.00 0.00 55 1009.0
20260504035507 20 269 0.0 4.8 0.00 0.00 0.00 55 1009.1
20260504035009 20 240 1.6 4.8 0.00 0.00 0.00 55 1009.1
20260504034503 20 226 1.6 6.4 0.00 0.00 0.00 54 1009.2
20260504034004 20 259 0.0 6.4 0.00 0.00 0.00 54 1008.9
20260504033504 20 158 1.6 4.8 0.00 0.00 0.00 54 1008.7
20260504033004 20 216 1.6 4.8 0.00 0.00 0.00 54 1009.1
20260504032505 20 214 1.6 6.4 0.00 0.00 0.00 54 1009.2
20260504032003 20 217 1.6 6.4 0.00 0.00 0.00 54 1009.3
20260504031511 20 230 1.6 6.4 0.00 0.00 0.00 54 1009.3
20260504031008 20 181 0.0 6.4 0.00 0.00 0.00 55 1009.2
20260504030507 20 239 0.0 3.2 0.00 0.00 0.00 55 1009.5
20260504030016 20 28 0.0 4.8 0.00 0.00 0.00 54 1009.4
20260504025509 20 120 0.0 4.8 0.00 0.00 0.00 52 1009.3
20260504025006 20 171 0.0 4.8 0.00 0.00 0.00 52 1009.3
20260504024522 20 240 0.0 3.2 0.00 0.00 0.00 52 1009.2
20260504024010 20 189 0.0 3.2 0.00 0.00 0.00 52 1009.1
20260504023509 20 133 0.0 3.2 0.00 0.00 0.00 53 1009.1
20260504023005 20 134 0.0 3.2 0.00 0.00 0.00 52 1009.3
20260504022504 20 210 0.0 1.6 0.00 0.00 0.00 53 1009.2
20260504022004 21 210 0.0 1.6 0.00 0.00 0.00 51 1009.3
20260504021509 21 192 0.0 1.6 0.00 0.00 0.00 51 1009.3
20260504021005 21 175 0.0 1.6 0.00 0.00 0.00 50 1009.3
20260504020504 21 257 0.0 0.0 0.00 0.00 0.00 51 1009.2
20260504020016 21 257 0.0 0.0 0.00 0.00 0.00 50 1009.2
20260504015508 21 257 0.0 0.0 0.00 0.00 0.00 50 1009.2
20260504015007 21 257 0.0 0.0 0.00 0.00 0.00 48 1009.2
20260504014523 22 257 0.0 0.0 0.00 0.00 0.00 47 1009.1
20260504014010 22 257 0.0 4.8 0.00 0.00 0.00 46 1009.0
20260504013511 22 259 0.0 6.4 0.00 0.00 0.00 46 1009.0
20260504013032 22 228 0.0 6.4 0.00 0.00 0.00 45 1009.0
20260504012510 22 284 0.0 3.2 0.00 0.00 0.00 45 1009.0
20260504012011 22 267 0.0 3.2 0.00 0.00 0.00 44 1008.9
20260504011526 22 272 0.0 6.4 0.00 0.00 0.00 44 1008.8
20260504011003 22 225 1.6 6.4 0.00 0.00 0.00 45 1008.9
20260504010503 22 290 0.0 3.2 0.00 0.00 0.00 46 1008.6
20260504010011 22 218 0.0 3.2 0.00 0.00 0.00 45 1008.4
20260504005507 22 218 0.0 3.2 0.00 0.00 0.00 45 1008.3
20260504005007 22 208 0.0 3.2 0.00 0.00 0.00 44 1008.3
20260504004527 22 204 0.0 3.2 0.00 0.00 0.00 44 1008.5
20260504004008 23 223 0.0 3.2 0.00 0.00 0.00 43 1008.3
20260504003510 23 230 0.0 3.2 0.00 0.00 0.00 43 1008.3
20260504003022 23 228 0.0 3.2 0.00 0.00 0.00 41 1008.4
20260504002508 23 236 0.0 3.2 0.00 0.00 0.00 41 1008.4
20260504002010 23 218 1.6 3.2 0.00 0.00 0.00 41 1008.3
20260504001530 23 252 0.0 3.2 0.00 0.00 0.00 42 1008.4
20260504001010 23 205 0.0 4.8 0.00 0.00 0.00 41 1008.5
20260504000511 23 251 1.6 3.2 0.00 0.00 0.00 41 1008.5
20260504000009 24 215 1.6 4.8 0.00 0.00 0.00 39 1008.5
20260503235506 24 230 0.0 6.4 0.00 0.00 0.00 40 1008.6